Terminal Aerodrome Forecast
Issued by NWS

Home | Current Version | Previous Version | Text Only | Print | Product List | Glossary On
Versions: 1 2 3 4 5 6 7 8 9 10 11 12 13
000
FTUS42 TJSJ 310500
TAFJMZ
TAF
TJMZ 310540Z 3106/0106 05002KT P6SM SKC
     FM311530 27010KT P6SM VCSH SCT025 BKN040
     FM312200 07006KT P6SM SCT050
      AMD NOT SKED TIL 311100=

USA.gov is the U.S. government's official web portal to all federal, state and local government web resources and services.